Regional Weather Roundup
Issued by NWS Cleveland, OH

Home | Current Version | Previous Version | Text Only | Print | Product List | Glossary Off
Versions: 1 2 3 4 5 6 7 8 9 10 11 12 13 14 15 16 17 18 19 20 21 22 23 24 25 26 27 28 29 30 31 32 33 34 35 36 37 38 39 40 41 42 43 44 45 46 47 48 49 50

000
ASUS41 KCLE 230602
RWRCLE
OHIO REGIONAL WEATHER ROUNDUP
NATIONAL WEATHER SERVICE CLEVELAND, OH
200 AM EDT SUN APR 23 2017

NOTE: "FAIR" INDICATES FEW OR NO CLOUDS BELOW 12,000 FEET WITH NO
SIGNIFICANT WEATHER AND/OR OBSTRUCTIONS TO VISIBILITY.

OHZ001>008-015>018-024>027-034-035-043-044-230700-
   NORTHWEST OHIO

CITY           SKY/WX    TMP DP  RH WIND       PRES   REMARKS
DEFIANCE       CLEAR     39  34  82 N3        30.14F
FINDLAY        CLEAR     43  31  62 NE5       30.11F
TOLEDO EXPRESS CLEAR     39  35  86 CALM      30.14S
TOLEDO EXEC    CLEAR     43  36  76 N5        30.15S
LIMA           CLEAR     41  33  73 E6        30.11F
$$

OHZ009>014-019>023-028>033-038-089-230700-
   NORTHEAST OHIO

CITY           SKY/WX    TMP DP  RH WIND       PRES   REMARKS
CLE-HOPKINS    PTCLDY    42  35  76 CALM      30.15F
CLE-LAKEFRONT  CLEAR     46  38  73 NE3       30.12F
CUY CO. ARPT   NOT AVBL
LORAIN-ELYRIA  CLEAR     39  33  79 NE3       30.13F
ASHTABULA      CLEAR     36  35  96 CALM      30.13F
AKRON-CANTON   PTCLDY    40  33  76 N10       30.11S
WOOSTER        CLEAR     38  34  85 N6        30.12F
MANSFIELD      CLEAR     40  34  79 N7        30.11F
YOUNGSTOWN     PTCLDY    39  33  79 N8        30.11F
$$

OHZ042-051>053-060>062-070>072-077>081-230700-
  SOUTHWEST OHIO

CITY           SKY/WX    TMP DP  RH WIND       PRES   REMARKS
CINC-COVINGTON CLEAR     46  35  65 NE14      30.05F
CINC-LUNKEN    CLEAR     41  37  86 NE6       30.07F
HAMILTON       CLEAR     45  36  70 NE7       30.08F
DAYTON         CLEAR     39  33  79 N8        30.09F
WRIGHT-PAT AFB CLEAR     38  34  85 N6        30.08F
DAYTON GENERAL CLEAR     40  34  79 NE7       30.07S
WILMINGTON     CLEAR     41  36  82 NE9       30.06S
$$

OHZ036-037-039>041-045>050-054>059-063>069-073>076-082>088-230700-
  CENTRAL AND SOUTHEAST OHIO

CITY           SKY/WX    TMP DP  RH WIND       PRES   REMARKS
COLUMBUS       CLEAR     41  35  79 N8        30.08F
OSU AIRPORT    CLEAR     39  35  86 N8        30.09S
BOLTON FIELD   CLEAR     38  34  84 NE5       30.09S
RICKENBACK AFB CLEAR     41  34  78 N7        30.08S
NEWARK         CLEAR     42  34  73 CALM      30.08F
MARION         CLEAR     38  32  79 N7        30.11F
LANCASTER      CLEAR     39  35  86 NW3       30.08S
ZANESVILLE     CLEAR     42  33  70 N5        30.08S
NEW PHILLY     NOT AVBL
$$




USA.gov is the U.S. government's official web portal to all federal, state and local government web resources and services.